contact:dominique.lefevre@mio.osupytheas.fr, maurice.libes@osupytheas.fr, didier.mallarino@osupytheas.fr
Project:EMSO http://www.emso-fr.org/EMSO-France
Depth: 2436.0 m
Title:EMSO Ligure Ouest : Data MII capteur MICROCAT
DateTime_Computer,Latitude,Longitude,Temperature,Conductivity,Pressure,DateTime_Instrument
DateTime_Computer,Latitude,Longitude,degC,S m-1,dbar,DateTime_Instrument
2019-07-18T00:00:46Z,42.805,6.029,13.2964,4.59973,2469.923,2019-7-18T02:01:05Z
2019-07-18T00:03:50Z,42.805,6.029,13.2960,4.59973,2469.937,2019-7-18T02:04:08Z
2019-07-18T00:06:53Z,42.805,6.029,13.2959,4.59980,2469.937,2019-7-18T02:07:11Z
2019-07-18T00:09:56Z,42.805,6.029,13.2963,4.59976,2469.947,2019-7-18T02:10:15Z
2019-07-18T00:12:59Z,42.805,6.029,13.2964,4.59976,2469.937,2019-7-18T02:13:18Z
2019-07-18T00:16:02Z,42.805,6.029,13.2976,4.59988,2469.923,2019-7-18T02:16:21Z
2019-07-18T00:19:06Z,42.805,6.029,13.2964,4.59991,2469.937,2019-7-18T02:19:24Z
2019-07-18T00:22:09Z,42.805,6.029,13.2974,4.59990,2469.937,2019-7-18T02:22:27Z
2019-07-18T00:25:12Z,42.805,6.029,13.2970,4.60016,2469.937,2019-7-18T02:25:31Z
2019-07-18T00:28:15Z,42.805,6.029,13.2971,4.59989,2469.923,2019-7-18T02:28:34Z
2019-07-18T00:31:18Z,42.805,6.029,13.2968,4.59991,2469.937,2019-7-18T02:31:37Z
2019-07-18T00:34:22Z,42.805,6.029,13.2967,4.60007,2469.947,2019-7-18T02:34:40Z
2019-07-18T00:37:25Z,42.805,6.029,13.2969,4.59994,2469.923,2019-7-18T02:37:43Z
2019-07-18T00:40:28Z,42.805,6.029,13.2972,4.60014,2469.96,2019-7-18T02:40:47Z
2019-07-18T00:43:31Z,42.805,6.029,13.2972,4.60014,2469.9,2019-7-18T02:43:50Z
2019-07-18T00:46:34Z,42.805,6.029,13.2985,4.60016,2469.937,2019-7-18T02:46:53Z
2019-07-18T00:49:38Z,42.805,6.029,13.2982,4.59983,2469.937,2019-7-18T02:49:56Z
2019-07-18T00:52:41Z,42.805,6.029,13.2964,4.59984,2469.9,2019-7-18T02:52:59Z
2019-07-18T00:55:44Z,42.805,6.029,13.2967,4.59978,2469.89,2019-7-18T02:56:03Z
2019-07-18T00:58:47Z,42.805,6.029,13.2975,4.60005,2469.914,2019-7-18T02:59:06Z
2019-07-18T01:01:50Z,42.805,6.029,13.2979,4.59998,2469.9,2019-7-18T03:02:09Z
2019-07-18T01:04:54Z,42.805,6.029,13.2983,4.60003,2469.876,2019-7-18T03:05:12Z
2019-07-18T01:07:57Z,42.805,6.029,13.2976,4.60024,2469.876,2019-7-18T03:08:15Z
2019-07-18T01:11:00Z,42.805,6.029,13.2986,4.59994,2469.876,2019-7-18T03:11:18Z
2019-07-18T01:14:03Z,42.805,6.029,13.2969,4.59981,2469.876,2019-7-18T03:14:22Z
2019-07-18T01:17:06Z,42.805,6.029,13.2971,4.59989,2469.9,2019-7-18T03:17:25Z
2019-07-18T01:20:10Z,42.805,6.029,13.2978,4.60001,2469.937,2019-7-18T03:20:28Z
2019-07-18T01:23:13Z,42.805,6.029,13.2988,4.60004,2469.853,2019-7-18T03:23:31Z
2019-07-18T01:26:16Z,42.805,6.029,13.2982,4.60025,2469.914,2019-7-18T03:26:35Z
2019-07-18T01:29:19Z,42.805,6.029,13.2967,4.59999,2469.89,2019-7-18T03:29:38Z
2019-07-18T01:32:22Z,42.805,6.029,13.2971,4.60028,2469.914,2019-7-18T03:32:41Z
2019-07-18T01:35:26Z,42.805,6.029,13.2982,4.60011,2469.876,2019-7-18T03:35:44Z
2019-07-18T01:38:29Z,42.805,6.029,13.2983,4.60013,2469.89,2019-7-18T03:38:47Z
2019-07-18T01:41:32Z,42.805,6.029,13.2969,4.60000,2469.89,2019-7-18T03:41:51Z
2019-07-18T01:44:35Z,42.805,6.029,13.2991,4.59996,2469.89,2019-7-18T03:44:54Z
2019-07-18T01:47:38Z,42.805,6.029,13.2986,4.60026,2469.839,2019-7-18T03:47:57Z
2019-07-18T01:50:42Z,42.805,6.029,13.2979,4.60025,2469.853,2019-7-18T03:51:00Z
2019-07-18T01:53:45Z,42.805,6.029,13.2979,4.60014,2469.89,2019-7-18T03:54:03Z
2019-07-18T01:56:48Z,42.805,6.029,13.2986,4.60014,2469.89,2019-7-18T03:57:07Z
2019-07-18T01:59:51Z,42.805,6.029,13.3000,4.60029,2469.89,2019-7-18T04:00:10Z
2019-07-18T02:02:54Z,42.805,6.029,13.2984,4.60014,2469.867,2019-7-18T04:03:13Z
2019-07-18T02:05:58Z,42.805,6.029,13.2985,4.60008,2469.914,2019-7-18T04:06:16Z
2019-07-18T02:09:01Z,42.805,6.029,13.2972,4.60017,2469.844,2019-7-18T04:09:19Z
2019-07-18T02:12:04Z,42.805,6.029,13.2989,4.60017,2469.876,2019-7-18T04:12:23Z
2019-07-18T02:15:07Z,42.805,6.029,13.2982,4.60011,2469.9,2019-7-18T04:15:26Z
2019-07-18T02:18:10Z,42.805,6.029,13.2982,4.60017,2469.876,2019-7-18T04:18:29Z
2019-07-18T02:21:14Z,42.805,6.029,13.2982,4.60012,2469.876,2019-7-18T04:21:32Z
2019-07-18T02:24:17Z,42.805,6.029,13.2980,4.60015,2469.844,2019-7-18T04:24:35Z
2019-07-18T02:27:20Z,42.805,6.029,13.2987,4.60026,2469.867,2019-7-18T04:27:39Z
2019-07-18T02:30:23Z,42.805,6.029,13.2983,4.60005,2469.853,2019-7-18T04:30:42Z
2019-07-18T02:33:26Z,42.805,6.029,13.2986,4.60014,2469.853,2019-7-18T04:33:45Z
2019-07-18T02:36:30Z,42.805,6.029,13.2987,4.60019,2469.876,2019-7-18T04:36:48Z
2019-07-18T02:39:33Z,42.805,6.029,13.2992,4.60022,2469.867,2019-7-18T04:39:51Z
2019-07-18T02:42:36Z,42.805,6.029,13.2986,4.59999,2469.853,2019-7-18T04:42:54Z
2019-07-18T02:45:39Z,42.805,6.029,13.2971,4.59976,2469.876,2019-7-18T04:45:58Z
2019-07-18T02:48:42Z,42.805,6.029,13.2967,4.59995,2469.867,2019-7-18T04:49:01Z
2019-07-18T02:51:46Z,42.805,6.029,13.2986,4.60009,2469.853,2019-7-18T04:52:04Z
2019-07-18T02:54:49Z,42.805,6.029,13.2985,4.60016,2469.853,2019-7-18T04:55:07Z
2019-07-18T02:57:52Z,42.805,6.029,13.2986,4.59976,2469.806,2019-7-18T04:58:11Z
2019-07-18T03:00:55Z,42.805,6.029,13.3005,4.59999,2469.867,2019-7-18T05:01:14Z
2019-07-18T03:03:58Z,42.805,6.029,13.2967,4.60007,2469.83,2019-7-18T05:04:17Z
2019-07-18T03:07:02Z,42.805,6.029,13.2993,4.60024,2469.867,2019-7-18T05:07:20Z
2019-07-18T03:10:05Z,42.805,6.029,13.2957,4.59999,2469.853,2019-7-18T05:10:23Z
2019-07-18T03:13:08Z,42.805,6.029,13.2965,4.60011,2469.853,2019-7-18T05:13:27Z
2019-07-18T03:16:11Z,42.805,6.029,13.2986,4.60022,2469.867,2019-7-18T05:16:30Z
2019-07-18T03:19:14Z,42.805,6.029,13.2993,4.60004,2469.867,2019-7-18T05:19:33Z
2019-07-18T03:22:18Z,42.805,6.029,13.3004,4.60023,2469.876,2019-7-18T05:22:36Z
2019-07-18T03:25:21Z,42.805,6.029,13.2991,4.59983,2469.876,2019-7-18T05:25:39Z
2019-07-18T03:28:24Z,42.805,6.029,13.2990,4.60003,2469.867,2019-7-18T05:28:43Z
2019-07-18T03:31:27Z,42.805,6.029,13.2977,4.60026,2469.867,2019-7-18T05:31:46Z
2019-07-18T03:34:30Z,42.805,6.029,13.2991,4.59989,2469.876,2019-7-18T05:34:49Z
2019-07-18T03:37:34Z,42.805,6.029,13.2990,4.60005,2469.853,2019-7-18T05:37:52Z
2019-07-18T03:40:37Z,42.805,6.029,13.3005,4.60034,2469.83,2019-7-18T05:40:55Z
2019-07-18T03:43:40Z,42.805,6.029,13.2989,4.60032,2469.876,2019-7-18T05:43:59Z
2019-07-18T03:46:43Z,42.805,6.029,13.2991,4.60032,2469.867,2019-7-18T05:47:02Z
2019-07-18T03:49:46Z,42.805,6.029,13.2984,4.60005,2469.83,2019-7-18T05:50:05Z
2019-07-18T03:52:50Z,42.805,6.029,13.2982,4.60028,2469.853,2019-7-18T05:53:08Z
2019-07-18T03:55:53Z,42.805,6.029,13.2993,4.60016,2469.867,2019-7-18T05:56:11Z
2019-07-18T03:58:56Z,42.805,6.029,13.2998,4.60019,2469.853,2019-7-18T05:59:15Z
2019-07-18T04:01:59Z,42.805,6.029,13.2981,4.60011,2469.876,2019-7-18T06:02:18Z
2019-07-18T04:05:02Z,42.805,6.029,13.2993,4.60033,2469.844,2019-7-18T06:05:21Z
2019-07-18T04:08:06Z,42.805,6.029,13.2974,4.60013,2469.876,2019-7-18T06:08:24Z
2019-07-18T04:11:09Z,42.805,6.029,13.2996,4.60027,2469.914,2019-7-18T06:11:27Z
2019-07-18T04:14:12Z,42.805,6.029,13.2974,4.60013,2469.876,2019-7-18T06:14:31Z
2019-07-18T04:17:15Z,42.805,6.029,13.2986,4.60019,2469.914,2019-7-18T06:17:34Z
2019-07-18T04:20:18Z,42.805,6.029,13.3004,4.60003,2469.9,2019-7-18T06:20:37Z
2019-07-18T04:23:22Z,42.805,6.029,13.2993,4.60010,2469.914,2019-7-18T06:23:40Z
2019-07-18T04:26:25Z,42.805,6.029,13.2996,4.60014,2469.876,2019-7-18T06:26:43Z
2019-07-18T04:29:28Z,42.805,6.029,13.2989,4.60021,2469.89,2019-7-18T06:29:47Z
2019-07-18T04:32:31Z,42.805,6.029,13.2987,4.60016,2469.89,2019-7-18T06:32:50Z
2019-07-18T04:35:34Z,42.805,6.029,13.2993,4.60029,2469.914,2019-7-18T06:35:53Z
2019-07-18T04:38:38Z,42.805,6.029,13.2991,4.60000,2469.914,2019-7-18T06:38:56Z
2019-07-18T04:41:41Z,42.805,6.029,13.2989,4.60009,2469.876,2019-7-18T06:41:59Z
2019-07-18T04:44:44Z,42.805,6.029,13.3001,4.60026,2469.914,2019-7-18T06:45:03Z
2019-07-18T04:47:47Z,42.805,6.029,13.2974,4.60003,2469.937,2019-7-18T06:48:06Z
2019-07-18T04:50:50Z,42.805,6.029,13.2989,4.60023,2469.876,2019-7-18T06:51:09Z
2019-07-18T04:53:54Z,42.805,6.029,13.2991,4.60016,2469.876,2019-7-18T06:54:12Z
2019-07-18T04:56:57Z,42.805,6.029,13.2990,4.60010,2469.876,2019-7-18T06:57:15Z
2019-07-18T05:00:00Z,42.805,6.029,13.2974,4.60013,2469.876,2019-7-18T07:00:19Z
2019-07-18T05:03:03Z,42.805,6.029,13.2996,4.60015,2469.914,2019-7-18T07:03:22Z
2019-07-18T05:06:07Z,42.805,6.029,13.2986,4.60008,2469.914,2019-7-18T07:06:25Z
2019-07-18T05:09:10Z,42.805,6.029,13.2994,4.60011,2469.9,2019-7-18T07:09:28Z
2019-07-18T05:12:13Z,42.805,6.029,13.2991,4.59994,2469.914,2019-7-18T07:12:31Z
2019-07-18T05:15:16Z,42.805,6.029,13.2979,4.60016,2469.9,2019-7-18T07:15:35Z
2019-07-18T05:18:19Z,42.805,6.029,13.3003,4.60017,2469.914,2019-7-18T07:18:38Z
2019-07-18T05:21:22Z,42.805,6.029,13.2986,4.60031,2469.876,2019-7-18T07:21:41Z
2019-07-18T05:24:26Z,42.805,6.029,13.2991,4.60025,2469.923,2019-7-18T07:24:44Z
2019-07-18T05:27:29Z,42.805,6.029,13.2983,4.60040,2469.937,2019-7-18T07:27:47Z
2019-07-18T05:30:32Z,42.805,6.029,13.3000,4.59990,2469.9,2019-7-18T07:30:51Z
2019-07-18T05:33:35Z,42.805,6.029,13.3002,4.60011,2469.89,2019-7-18T07:33:54Z
2019-07-18T05:36:38Z,42.805,6.029,13.2995,4.60016,2469.96,2019-7-18T07:36:57Z
2019-07-18T05:39:42Z,42.805,6.029,13.2986,4.60021,2469.923,2019-7-18T07:40:00Z
2019-07-18T05:42:45Z,42.805,6.029,13.2994,4.60016,2469.96,2019-7-18T07:43:03Z
2019-07-18T05:45:48Z,42.805,6.029,13.2996,4.60004,2469.947,2019-7-18T07:46:07Z
2019-07-18T05:48:51Z,42.805,6.029,13.2982,4.60040,2469.923,2019-7-18T07:49:10Z
2019-07-18T05:51:55Z,42.805,6.029,13.2999,4.60035,2469.937,2019-7-18T07:52:13Z
2019-07-18T05:54:58Z,42.805,6.029,13.3012,4.60039,2469.96,2019-7-18T07:55:16Z
2019-07-18T05:58:01Z,42.805,6.029,13.2995,4.60049,2469.937,2019-7-18T07:58:19Z
2019-07-18T06:01:04Z,42.805,6.029,13.2986,4.60032,2469.937,2019-7-18T08:01:23Z
2019-07-18T06:04:07Z,42.805,6.029,13.2992,4.60020,2469.9,2019-7-18T08:04:26Z
2019-07-18T06:07:10Z,42.805,6.029,13.2992,4.60038,2469.96,2019-7-18T08:07:29Z
2019-07-18T06:10:14Z,42.805,6.029,13.3007,4.60044,2469.937,2019-7-18T08:10:32Z
2019-07-18T06:13:17Z,42.805,6.029,13.2992,4.59997,2469.937,2019-7-18T08:13:35Z
2019-07-18T06:16:20Z,42.805,6.029,13.2998,4.59986,2469.96,2019-7-18T08:16:39Z
2019-07-18T06:19:23Z,42.805,6.029,13.2974,4.60021,2469.947,2019-7-18T08:19:42Z
2019-07-18T06:22:26Z,42.805,6.029,13.2991,4.60029,2469.947,2019-7-18T08:22:45Z
2019-07-18T06:25:30Z,42.805,6.029,13.3003,4.60058,2469.984,2019-7-18T08:25:48Z
2019-07-18T06:28:33Z,42.805,6.029,13.3010,4.60061,2469.947,2019-7-18T08:28:51Z
2019-07-18T06:31:36Z,42.805,6.029,13.3024,4.60041,2469.96,2019-7-18T08:31:55Z
2019-07-18T06:34:39Z,42.805,6.029,13.2991,4.60037,2469.923,2019-7-18T08:34:58Z
2019-07-18T06:37:43Z,42.805,6.029,13.3002,4.60030,2469.96,2019-7-18T08:38:01Z
2019-07-18T06:40:46Z,42.805,6.029,13.3012,4.60017,2469.947,2019-7-18T08:41:05Z
2019-07-18T06:43:49Z,42.805,6.029,13.3007,4.60016,2469.951,2019-7-18T08:44:08Z
2019-07-18T06:46:52Z,42.805,6.029,13.2971,4.60033,2469.947,2019-7-18T08:47:11Z
2019-07-18T06:49:56Z,42.805,6.029,13.2980,4.60011,2469.984,2019-7-18T08:50:14Z
2019-07-18T06:52:59Z,42.805,6.029,13.2983,4.60035,2469.97,2019-7-18T08:53:18Z
2019-07-18T06:56:02Z,42.805,6.029,13.3002,4.60036,2469.97,2019-7-18T08:56:21Z
2019-07-18T06:59:06Z,42.805,6.029,13.3006,4.60044,2469.947,2019-7-18T08:59:24Z
2019-07-18T07:02:09Z,42.805,6.029,13.3004,4.60044,2469.993,2019-7-18T09:02:28Z
2019-07-18T07:05:12Z,42.805,6.029,13.2987,4.60028,2469.96,2019-7-18T09:05:31Z
2019-07-18T07:08:16Z,42.805,6.029,13.2996,4.59981,2469.96,2019-7-18T09:08:34Z
2019-07-18T07:11:19Z,42.805,6.029,13.3011,4.60030,2469.947,2019-7-18T09:11:37Z
2019-07-18T07:14:22Z,42.805,6.029,13.2976,4.60027,2469.97,2019-7-18T09:14:41Z
2019-07-18T07:17:26Z,42.805,6.029,13.2985,4.60019,2469.97,2019-7-18T09:17:44Z
2019-07-18T07:20:29Z,42.805,6.029,13.2998,4.60036,2469.984,2019-7-18T09:20:47Z
2019-07-18T07:23:32Z,42.805,6.029,13.2982,4.60011,2469.984,2019-7-18T09:23:51Z
2019-07-18T07:26:35Z,42.805,6.029,13.3014,4.59999,2469.947,2019-7-18T09:26:54Z
2019-07-18T07:29:39Z,42.805,6.029,13.3005,4.60015,2469.96,2019-7-18T09:29:57Z
2019-07-18T07:32:42Z,42.805,6.029,13.2995,4.60026,2470.007,2019-7-18T09:33:01Z
2019-07-18T07:35:45Z,42.805,6.029,13.2983,4.60025,2469.947,2019-7-18T09:36:04Z
2019-07-18T07:38:48Z,42.805,6.029,13.2978,4.60029,2469.96,2019-7-18T09:39:07Z
2019-07-18T07:41:52Z,42.805,6.029,13.3000,4.59975,2469.993,2019-7-18T09:42:10Z
2019-07-18T07:44:55Z,42.805,6.029,13.2996,4.60020,2469.96,2019-7-18T09:45:14Z
2019-07-18T07:47:58Z,42.805,6.029,13.2990,4.59991,2469.993,2019-7-18T09:48:17Z
2019-07-18T07:51:02Z,42.805,6.029,13.2979,4.60016,2470.007,2019-7-18T09:51:20Z
2019-07-18T07:54:05Z,42.805,6.029,13.2983,4.60015,2469.97,2019-7-18T09:54:24Z
2019-07-18T07:57:08Z,42.805,6.029,13.2985,4.60026,2469.97,2019-7-18T09:57:27Z
2019-07-18T08:00:11Z,42.805,6.029,13.2996,4.59986,2469.984,2019-7-18T10:00:30Z
2019-07-18T08:03:15Z,42.805,6.029,13.2995,4.60037,2469.97,2019-7-18T10:03:33Z
2019-07-18T08:06:18Z,42.805,6.029,13.2996,4.60052,2469.97,2019-7-18T10:06:37Z
2019-07-18T08:09:21Z,42.805,6.029,13.3002,4.60015,2469.96,2019-7-18T10:09:40Z
2019-07-18T08:12:25Z,42.805,6.029,13.3006,4.60020,2469.97,2019-7-18T10:12:43Z
2019-07-18T08:15:28Z,42.805,6.029,13.3020,4.60047,2469.97,2019-7-18T10:15:47Z
2019-07-18T08:18:31Z,42.805,6.029,13.2996,4.60049,2469.947,2019-7-18T10:18:50Z
2019-07-18T08:21:35Z,42.805,6.029,13.2991,4.60029,2469.993,2019-7-18T10:21:53Z
2019-07-18T08:24:38Z,42.805,6.029,13.3014,4.60009,2469.96,2019-7-18T10:24:56Z
2019-07-18T08:27:41Z,42.805,6.029,13.3010,4.60081,2469.947,2019-7-18T10:28:00Z
2019-07-18T08:30:44Z,42.805,6.029,13.3020,4.60021,2469.984,2019-7-18T10:31:03Z
2019-07-18T08:33:48Z,42.805,6.029,13.2995,4.60029,2469.96,2019-7-18T10:34:06Z
2019-07-18T08:36:51Z,42.805,6.029,13.2998,4.60033,2469.984,2019-7-18T10:37:10Z
2019-07-18T08:39:54Z,42.805,6.029,13.2974,4.60011,2469.96,2019-7-18T10:40:13Z
2019-07-18T08:42:58Z,42.805,6.029,13.3004,4.60005,2470.007,2019-7-18T10:43:16Z
2019-07-18T08:46:01Z,42.805,6.029,13.3007,4.60015,2469.984,2019-7-18T10:46:20Z
2019-07-18T08:49:04Z,42.805,6.029,13.2971,4.59998,2469.97,2019-7-18T10:49:23Z
2019-07-18T08:52:07Z,42.805,6.029,13.2982,4.60044,2469.96,2019-7-18T10:52:26Z
2019-07-18T08:55:11Z,42.805,6.029,13.2990,4.60007,2469.96,2019-7-18T10:55:29Z
2019-07-18T08:58:14Z,42.805,6.029,13.2997,4.60021,2469.96,2019-7-18T10:58:33Z
2019-07-18T09:01:17Z,42.805,6.029,13.2994,4.60027,2469.984,2019-7-18T11:01:36Z
2019-07-18T09:04:21Z,42.805,6.029,13.2993,4.59977,2469.97,2019-7-18T11:04:39Z
2019-07-18T09:07:24Z,42.805,6.029,13.2996,4.60069,2469.947,2019-7-18T11:07:43Z
2019-07-18T09:10:27Z,42.805,6.029,13.2987,4.60012,2469.97,2019-7-18T11:10:46Z
2019-07-18T09:13:30Z,42.805,6.029,13.2987,4.59983,2469.947,2019-7-18T11:13:49Z
2019-07-18T09:16:34Z,42.805,6.029,13.2986,4.60022,2469.947,2019-7-18T11:16:52Z
2019-07-18T09:19:37Z,42.805,6.029,13.3000,4.60009,2469.96,2019-7-18T11:19:56Z
2019-07-18T09:22:40Z,42.805,6.029,13.2993,4.59985,2469.96,2019-7-18T11:22:59Z
2019-07-18T09:25:44Z,42.805,6.029,13.2986,4.59986,2469.923,2019-7-18T11:26:02Z
2019-07-18T09:28:47Z,42.805,6.029,13.2968,4.59980,2469.97,2019-7-18T11:29:06Z
2019-07-18T09:31:50Z,42.805,6.029,13.2968,4.59970,2469.947,2019-7-18T11:32:09Z
2019-07-18T09:34:54Z,42.805,6.029,13.2967,4.59988,2469.947,2019-7-18T11:35:12Z
2019-07-18T09:37:57Z,42.805,6.029,13.2974,4.60016,2469.96,2019-7-18T11:38:16Z
2019-07-18T09:41:00Z,42.805,6.029,13.2982,4.60023,2469.937,2019-7-18T11:41:19Z
2019-07-18T09:44:04Z,42.805,6.029,13.3006,4.59986,2469.97,2019-7-18T11:44:22Z
2019-07-18T09:47:07Z,42.805,6.029,13.2986,4.60020,2469.923,2019-7-18T11:47:25Z
2019-07-18T09:50:10Z,42.805,6.029,13.2984,4.60003,2469.937,2019-7-18T11:50:29Z
2019-07-18T09:53:14Z,42.805,6.029,13.2993,4.59994,2469.947,2019-7-18T11:53:32Z
2019-07-18T09:56:17Z,42.805,6.029,13.2993,4.60041,2469.937,2019-7-18T11:56:36Z
2019-07-18T09:59:20Z,42.805,6.029,13.2997,4.60045,2469.923,2019-7-18T11:59:39Z
2019-07-18T10:02:23Z,42.805,6.029,13.3014,4.60003,2469.937,2019-7-18T12:02:42Z
2019-07-18T10:05:27Z,42.805,6.029,13.3000,4.60035,2469.923,2019-7-18T12:05:45Z
2019-07-18T10:08:30Z,42.805,6.029,13.3000,4.60046,2469.984,2019-7-18T12:08:49Z
2019-07-18T10:11:33Z,42.805,6.029,13.3028,4.60031,2469.923,2019-7-18T12:11:52Z
2019-07-18T10:14:37Z,42.805,6.029,13.3024,4.60036,2469.9,2019-7-18T12:14:55Z
2019-07-18T10:17:40Z,42.805,6.029,13.3006,4.60029,2469.876,2019-7-18T12:17:58Z
2019-07-18T10:20:43Z,42.805,6.029,13.3009,4.60016,2469.914,2019-7-18T12:21:02Z
2019-07-18T10:23:46Z,42.805,6.029,13.2998,4.60031,2469.9,2019-7-18T12:24:05Z
2019-07-18T10:26:50Z,42.805,6.029,13.3010,4.60020,2469.914,2019-7-18T12:27:08Z
2019-07-18T10:29:53Z,42.805,6.029,13.2995,4.60021,2469.9,2019-7-18T12:30:11Z
2019-07-18T10:32:56Z,42.805,6.029,13.3012,4.60062,2469.9,2019-7-18T12:33:15Z
2019-07-18T10:35:59Z,42.805,6.029,13.2976,4.60016,2469.876,2019-7-18T12:36:18Z
2019-07-18T10:39:03Z,42.805,6.029,13.3006,4.60031,2469.9,2019-7-18T12:39:22Z
2019-07-18T10:42:06Z,42.805,6.029,13.3002,4.60022,2469.937,2019-7-18T12:42:25Z
2019-07-18T10:45:10Z,42.805,6.029,13.2990,4.60014,2469.9,2019-7-18T12:45:28Z
2019-07-18T10:48:13Z,42.805,6.029,13.3024,4.60000,2469.914,2019-7-18T12:48:32Z
2019-07-18T10:51:16Z,42.805,6.029,13.2990,4.60001,2469.9,2019-7-18T12:51:35Z
2019-07-18T10:54:20Z,42.805,6.029,13.2973,4.59991,2469.876,2019-7-18T12:54:38Z
2019-07-18T10:57:23Z,42.805,6.029,13.2980,4.60029,2469.9,2019-7-18T12:57:41Z
2019-07-18T11:00:26Z,42.805,6.029,13.2997,4.60049,2469.9,2019-7-18T13:00:45Z
2019-07-18T11:03:29Z,42.805,6.029,13.2993,4.60044,2469.9,2019-7-18T13:03:48Z
2019-07-18T11:06:33Z,42.805,6.029,13.3009,4.60007,2469.876,2019-7-18T13:06:51Z
2019-07-18T11:09:36Z,42.805,6.029,13.3008,4.60016,2469.876,2019-7-18T13:09:55Z
2019-07-18T11:12:39Z,42.805,6.029,13.3014,4.60026,2469.89,2019-7-18T13:12:58Z
2019-07-18T11:15:43Z,42.805,6.029,13.2997,4.59975,2469.853,2019-7-18T13:16:01Z
2019-07-18T11:18:46Z,42.805,6.029,13.2993,4.60014,2469.844,2019-7-18T13:19:04Z
2019-07-18T11:21:49Z,42.805,6.029,13.2990,4.60027,2469.876,2019-7-18T13:22:08Z
2019-07-18T11:24:52Z,42.805,6.029,13.2998,4.59990,2469.853,2019-7-18T13:25:11Z
2019-07-18T11:27:56Z,42.805,6.029,13.3008,4.59985,2469.867,2019-7-18T13:28:14Z
2019-07-18T11:30:59Z,42.805,6.029,13.2996,4.60006,2469.876,2019-7-18T13:31:18Z
2019-07-18T11:34:02Z,42.805,6.029,13.2967,4.60057,2469.89,2019-7-18T13:34:21Z
2019-07-18T11:37:06Z,42.805,6.029,13.2983,4.60029,2469.876,2019-7-18T13:37:24Z
2019-07-18T11:40:09Z,42.805,6.029,13.2998,4.60031,2469.876,2019-7-18T13:40:27Z
2019-07-18T11:43:12Z,42.805,6.029,13.2999,4.60058,2469.83,2019-7-18T13:43:31Z
2019-07-18T11:46:15Z,42.805,6.029,13.3006,4.60039,2469.844,2019-7-18T13:46:34Z
2019-07-18T11:49:19Z,42.805,6.029,13.3006,4.60016,2469.853,2019-7-18T13:49:37Z
2019-07-18T11:52:22Z,42.805,6.029,13.3015,4.60009,2469.844,2019-7-18T13:52:41Z
2019-07-18T11:55:25Z,42.805,6.029,13.2996,4.60003,2469.89,2019-7-18T13:55:44Z
2019-07-18T11:58:29Z,42.805,6.029,13.2974,4.60031,2469.914,2019-7-18T13:58:47Z
2019-07-18T12:01:32Z,42.805,6.029,13.2987,4.60044,2469.853,2019-7-18T14:01:51Z
2019-07-18T12:04:35Z,42.805,6.029,13.2977,4.60026,2469.867,2019-7-18T14:04:54Z
2019-07-18T12:07:39Z,42.805,6.029,13.2961,4.60041,2469.89,2019-7-18T14:07:57Z
2019-07-18T12:10:42Z,42.805,6.029,13.2982,4.60034,2469.844,2019-7-18T14:11:00Z
2019-07-18T12:13:45Z,42.805,6.029,13.3006,4.60046,2469.83,2019-7-18T14:14:04Z
2019-07-18T12:16:48Z,42.805,6.029,13.2998,4.60033,2469.867,2019-7-18T14:17:07Z
2019-07-18T12:19:52Z,42.805,6.029,13.2990,4.60014,2469.867,2019-7-18T14:20:10Z
2019-07-18T12:22:55Z,42.805,6.029,13.3003,4.60009,2469.821,2019-7-18T14:23:14Z
2019-07-18T12:25:58Z,42.805,6.029,13.2990,4.60045,2469.853,2019-7-18T14:26:17Z
2019-07-18T12:29:01Z,42.805,6.029,13.2998,4.60025,2469.83,2019-7-18T14:29:20Z
2019-07-18T12:32:05Z,42.805,6.029,13.2999,4.60013,2469.806,2019-7-18T14:32:23Z
2019-07-18T12:35:08Z,42.805,6.029,13.2993,4.59990,2469.844,2019-7-18T14:35:27Z
2019-07-18T12:38:11Z,42.805,6.029,13.2986,4.60032,2469.867,2019-7-18T14:38:30Z
2019-07-18T12:41:15Z,42.805,6.029,13.2998,4.60004,2469.83,2019-7-18T14:41:33Z
2019-07-18T12:44:18Z,42.805,6.029,13.2985,4.60034,2469.853,2019-7-18T14:44:36Z
2019-07-18T12:47:21Z,42.805,6.029,13.3019,4.60033,2469.867,2019-7-18T14:47:40Z
2019-07-18T12:50:24Z,42.805,6.029,13.2982,4.60006,2469.821,2019-7-18T14:50:43Z
2019-07-18T12:53:28Z,42.805,6.029,13.3007,4.59988,2469.821,2019-7-18T14:53:46Z
2019-07-18T12:56:31Z,42.805,6.029,13.2986,4.60006,2469.853,2019-7-18T14:56:49Z
2019-07-18T12:59:34Z,42.805,6.029,13.2981,4.60026,2469.83,2019-7-18T14:59:53Z
2019-07-18T13:02:37Z,42.805,6.029,13.3014,4.60023,2469.867,2019-7-18T15:02:56Z
2019-07-18T13:05:41Z,42.805,6.029,13.2996,4.60035,2469.83,2019-7-18T15:05:59Z
2019-07-18T13:08:44Z,42.805,6.029,13.2988,4.60044,2469.83,2019-7-18T15:09:02Z
2019-07-18T13:11:47Z,42.805,6.029,13.2979,4.60033,2469.844,2019-7-18T15:12:06Z
2019-07-18T13:14:50Z,42.805,6.029,13.2996,4.60029,2469.844,2019-7-18T15:15:09Z
2019-07-18T13:17:53Z,42.805,6.029,13.2983,4.60027,2469.821,2019-7-18T15:18:12Z
2019-07-18T13:20:57Z,42.805,6.029,13.2989,4.60034,2469.83,2019-7-18T15:21:15Z
2019-07-18T13:24:00Z,42.805,6.029,13.2979,4.60026,2469.83,2019-7-18T15:24:18Z
2019-07-18T13:27:03Z,42.805,6.029,13.3004,4.60021,2469.844,2019-7-18T15:27:22Z
2019-07-18T13:30:06Z,42.805,6.029,13.3002,4.60031,2469.83,2019-7-18T15:30:25Z
2019-07-18T13:33:10Z,42.805,6.029,13.2979,4.60028,2469.806,2019-7-18T15:33:28Z
2019-07-18T13:36:13Z,42.805,6.029,13.3011,4.60021,2469.821,2019-7-18T15:36:31Z
2019-07-18T13:39:16Z,42.805,6.029,13.2976,4.60017,2469.797,2019-7-18T15:39:35Z
2019-07-18T13:42:19Z,42.805,6.029,13.3008,4.60041,2469.83,2019-7-18T15:42:38Z
2019-07-18T13:45:22Z,42.805,6.029,13.3012,4.60021,2469.806,2019-7-18T15:45:41Z
2019-07-18T13:48:26Z,42.805,6.029,13.3019,4.60016,2469.83,2019-7-18T15:48:44Z
2019-07-18T13:51:29Z,42.805,6.029,13.3007,4.60004,2469.821,2019-7-18T15:51:47Z
2019-07-18T13:54:32Z,42.805,6.029,13.2985,4.59989,2469.797,2019-7-18T15:54:51Z
2019-07-18T13:57:35Z,42.805,6.029,13.3004,4.60025,2469.821,2019-7-18T15:57:54Z
2019-07-18T14:00:38Z,42.805,6.029,13.2983,4.60033,2469.806,2019-7-18T16:00:57Z
2019-07-18T14:03:42Z,42.805,6.029,13.2991,4.60011,2469.821,2019-7-18T16:04:00Z
2019-07-18T14:06:45Z,42.805,6.029,13.2984,4.60020,2469.821,2019-7-18T16:07:03Z
2019-07-18T14:09:48Z,42.805,6.029,13.2989,4.60013,2469.783,2019-7-18T16:10:06Z
2019-07-18T14:12:51Z,42.805,6.029,13.2976,4.60034,2469.853,2019-7-18T16:13:10Z
2019-07-18T14:15:54Z,42.805,6.029,13.2986,4.60026,2469.806,2019-7-18T16:16:13Z
2019-07-18T14:18:58Z,42.805,6.029,13.2991,4.60016,2469.806,2019-7-18T16:19:16Z
2019-07-18T14:22:01Z,42.805,6.029,13.3000,4.60027,2469.783,2019-7-18T16:22:19Z
2019-07-18T14:25:04Z,42.805,6.029,13.2984,4.60027,2469.821,2019-7-18T16:25:23Z
2019-07-18T14:28:07Z,42.805,6.029,13.2965,4.60025,2469.83,2019-7-18T16:28:26Z
2019-07-18T14:31:11Z,42.805,6.029,13.2974,4.60030,2469.806,2019-7-18T16:31:29Z
2019-07-18T14:34:14Z,42.805,6.029,13.2973,4.60022,2469.821,2019-7-18T16:34:33Z
2019-07-18T14:37:17Z,42.805,6.029,13.2997,4.60019,2469.83,2019-7-18T16:37:36Z
2019-07-18T14:40:21Z,42.805,6.029,13.2988,4.60011,2469.821,2019-7-18T16:40:39Z
2019-07-18T14:43:24Z,42.805,6.029,13.2991,4.60023,2469.783,2019-7-18T16:43:42Z
2019-07-18T14:46:27Z,42.805,6.029,13.2998,4.60011,2469.83,2019-7-18T16:46:46Z
2019-07-18T14:49:30Z,42.805,6.029,13.3001,4.60008,2469.806,2019-7-18T16:49:49Z
2019-07-18T14:52:34Z,42.805,6.029,13.2983,4.60022,2469.821,2019-7-18T16:52:52Z
2019-07-18T14:55:37Z,42.805,6.029,13.2993,4.59991,2469.806,2019-7-18T16:55:56Z
2019-07-18T14:58:40Z,42.805,6.029,13.2980,4.60000,2469.806,2019-7-18T16:58:59Z
2019-07-18T15:01:44Z,42.805,6.029,13.2986,4.60061,2469.806,2019-7-18T17:02:02Z
2019-07-18T15:04:47Z,42.805,6.029,13.3001,4.60007,2469.821,2019-7-18T17:05:05Z
2019-07-18T15:07:50Z,42.805,6.029,13.2993,4.60021,2469.844,2019-7-18T17:08:09Z
2019-07-18T15:10:53Z,42.805,6.029,13.2996,4.60011,2469.821,2019-7-18T17:11:12Z
2019-07-18T15:13:57Z,42.805,6.029,13.2997,4.59990,2469.797,2019-7-18T17:14:15Z